TimeEDT,TemperatureF,Dew PointF,Humidity,Sea Level PressureIn,VisibilityMPH,Wind Direction,Wind SpeedMPH,Gust SpeedMPH,PrecipitationIn,Events,Conditions,WindDirDegrees,DateUTC
12:53 AM,50.0,46.9,89,29.66,6.0,NNW,10.4,-,0.08,Rain,Light Rain,340,2012-10-29 04:53:00
1:05 AM,50.0,46.4,87,29.65,8.0,NNW,12.7,-,0.01,Rain,Light Rain,340,2012-10-29 05:05:00
1:53 AM,50.0,46.9,89,29.63,9.0,NNW,12.7,19.6,0.04,Rain,Light Rain,340,2012-10-29 05:53:00
2:53 AM,48.9,46.0,90,29.63,8.0,NNW,11.5,-,0.04,Rain,Light Rain,340,2012-10-29 06:53:00
3:53 AM,48.9,46.0,90,29.61,10.0,NNW,12.7,-,0.05,Rain,Light Rain,340,2012-10-29 07:53:00
4:03 AM,48.2,46.4,93,29.61,10.0,NNW,13.8,18.4,0.01,Rain,Light Rain,340,2012-10-29 08:03:00
4:53 AM,48.9,45.0,86,29.61,10.0,NNW,13.8,20.7,0.01,Rain,Light Rain,330,2012-10-29 08:53:00
5:53 AM,48.9,45.0,86,29.59,10.0,NNW,17.3,24.2,0.01,Rain,Light Rain,340,2012-10-29 09:53:00
6:53 AM,48.9,45.0,86,29.56,8.0,NNW,12.7,21.9,0.04,Rain,Light Rain,340,2012-10-29 10:53:00
7:53 AM,48.0,45.0,89,29.55,8.0,NNW,16.1,-,0.04,Rain,Light Rain,330,2012-10-29 11:53:00
8:53 AM,48.0,44.1,86,29.54,4.0,NNW,11.5,21.9,0.08,Rain,Rain,340,2012-10-29 12:53:00
9:53 AM,48.0,44.1,86,29.51,3.0,NNW,13.8,21.9,0.13,Rain,Rain,330,2012-10-29 13:53:00
10:53 AM,48.0,45.0,89,29.48,4.0,NW,18.4,23.0,0.18,Rain,Rain,320,2012-10-29 14:53:00
11:53 AM,48.0,44.1,86,29.43,3.0,NW,17.3,28.8,0.15,Rain,Rain,320,2012-10-29 15:53:00
12:05 PM,48.2,44.6,87,29.40,2.5,NW,19.6,32.2,0.05,Rain,Heavy Rain,320,2012-10-29 16:05:00
12:32 PM,48.2,44.6,87,29.39,1.8,NW,21.9,32.2,0.24,Rain,Heavy Rain,320,2012-10-29 16:32:00
12:53 PM,48.0,44.1,86,29.37,1.8,NW,23.0,35.7,0.41,Rain,Heavy Rain,320,2012-10-29 16:53:00
1:02 PM,48.2,44.6,87,29.34,2.0,NW,24.2,35.7,0.05,Rain,Heavy Rain,320,2012-10-29 17:02:00
1:46 PM,48.2,44.6,87,29.29,3.0,NW,24.2,35.7,0.23,Rain,Rain,310,2012-10-29 17:46:00
1:53 PM,48.0,44.1,86,29.29,3.0,NW,25.3,41.4,0.24,Rain,Rain,320,2012-10-29 17:53:00
2:38 PM,48.2,42.8,82,29.22,2.5,NW,28.8,39.1,0.12,Rain,Rain,310,2012-10-29 18:38:00
3:04 PM,48.2,42.8,82,29.19,2.0,WNW,28.8,46.0,0.21,Rain,Heavy Rain,300,2012-10-29 19:04:00
3:53 PM,48.0,43.0,83,29.15,2.0,NW,25.3,42.6,0.38,Rain,Rain,310,2012-10-29 19:53:00
4:39 PM,48.2,42.8,82,29.09,1.8,NW,32.2,47.2,0.18,Rain,Heavy Rain,310,2012-10-29 20:39:00
4:48 PM,48.2,42.8,82,29.08,2.0,WNW,36.8,44.9,0.22,Rain,Rain,300,2012-10-29 20:48:00
4:53 PM,48.0,43.0,83,29.08,2.0,NW,28.8,46.0,0.24,Rain,Heavy Rain,310,2012-10-29 20:53:00
5:53 PM,48.0,42.1,80,29.00,4.0,NW,35.7,51.8,0.24,Rain,Rain,310,2012-10-29 21:53:00
6:18 PM,46.4,42.8,87,28.97,2.5,NW,31.1,50.6,0.15,Rain,Heavy Rain,310,2012-10-29 22:18:00
6:48 PM,46.4,42.8,87,28.94,3.0,NW,33.4,50.6,0.35,Rain,Heavy Rain,310,2012-10-29 22:48:00
8:53 PM,46.0,39.0,76,28.84,3.0,NW,35.7,57.5,N/A,Rain,Heavy Rain,310,2012-10-30 00:53:00
9:53 PM,45.0,39.0,80,28.82,5.0,WNW,28.8,54.1,0.14,Rain,Rain,300,2012-10-30 01:53:00
10:53 PM,45.0,39.0,80,28.77,3.0,WNW,33.4,48.3,0.12,Rain,Rain,300,2012-10-30 02:53:00
11:07 PM,44.6,39.2,81,28.74,2.0,WNW,28.8,51.8,0.06,Rain,Heavy Rain,300,2012-10-30 03:07:00
11:45 PM,44.6,37.4,76,28.73,3.0,WNW,31.1,54.1,0.22,Rain,Light Rain,300,2012-10-30 03:45:00
11:53 PM,44.1,37.9,79,28.73,2.5,WNW,36.8,54.1,0.27,Rain,Heavy Rain,300,2012-10-30 03:53:00